Weather History for Massena, NY

Change the Weather History Date:

Thursday, December 5, 2013

  Actual Average Record
Temperature  
Mean Temperature 42 °F 27 °F  
Max Temperature 53 °F 35 °F 61 °F (2001)
Min Temperature 31 °F 19 °F -13 °F (1989)
Degree Days  
Heating Degree Days 23 38  
Month to date heating degree days 175 186  
Since 1 July heating degree days 1926 1955  
Cooling Degree Days 0 0  
Month to date cooling degree days 0  
Year to date cooling degree days 363  
Moisture  
Dew Point 37 °F    
Average Humidity 78    
Maximum Humidity 89    
Minimum Humidity 67    
Precipitation  
Precipitation 0.02 in 0.08 in 0.73 in (1952)
Month to date precipitation 0.05 0.43  
Year to date precipitation 33.93 32.96  
Sea Level Pressure  
Sea Level Pressure 29.84 in    
Wind  
Wind Speed 10 mph (SSW)    
Max Wind Speed 20 mph    
Max Gust Speed 28 mph    
Visibility 7 miles    
Events Rain    
T = Trace of Precipitation, MM = Missing Value Source: NWS Daily Summary

Daily Weather History Graph

Daily Weather History Graph

Search for Another Location

Airport:

Trip Planner

Search our weather history database for the weather conditions in past years. The results will help you decide how hot, cold, wet, or windy it might be!

Date:

Astronomy

Dec. 05, 2013 Rise Set
Actual Time 7:21 AM EST 4:18 PM EST
Civil Twilight 6:48 AM EST 4:51 PM EST
Nautical Twilight 6:11 AM EST 5:28 PM EST
Astronomical Twilight 5:36 AM EST 6:03 PM EST
Moon 9:36 AM EST (12/5) 7:40 PM EST (12/5)
Length of Visible Light 10h 03m
Length of Day
8h 56m
Waxing Crescent, 10% of the Moon is Illuminated
Dec 5
Waxing Crescent
Dec 9
First Quarter
Dec 17
Full
Dec 25
Last Quarter
Jan 1
New

Hourly Weather History & Observations

Time (EST) Temp. Windchill Dew Point Humidity Pressure Visibility Wind Dir Wind Speed Gust Speed Precip Events Conditions
12:53 AM 32.0 °F 23.0 °F 27.0 °F 82% 30.06 in 7.0 mi ENE 11.5 mph - N/A   Clear
1:53 AM 32.0 °F 24.2 °F 27.0 °F 82% 30.05 in 7.0 mi ENE 9.2 mph - N/A   Clear
2:53 AM 32.0 °F 23.0 °F 27.0 °F 82% 30.03 in 8.0 mi ENE 11.5 mph - N/A   Clear
3:53 AM 32.0 °F 23.0 °F 27.0 °F 82% 29.98 in 8.0 mi ENE 11.5 mph - N/A   Scattered Clouds
4:53 AM 32.0 °F 24.2 °F 27.0 °F 82% 29.94 in 8.0 mi ENE 9.2 mph - N/A   Clear
5:53 AM 33.1 °F 24.4 °F 28.9 °F 85% 29.91 in 8.0 mi NE 11.5 mph - N/A   Overcast
6:53 AM 33.1 °F 23.4 °F 30.0 °F 89% 29.89 in 7.0 mi ENE 13.8 mph - 0.01 in   Scattered Clouds
7:53 AM 33.1 °F 26.1 °F 30.9 °F 92% 29.88 in 5.0 mi ENE 8.1 mph - N/A   Overcast
8:53 AM 33.1 °F 28.7 °F 30.9 °F 92% 29.86 in 5.0 mi ENE 4.6 mph - N/A   Overcast
9:53 AM 33.1 °F 27.7 °F 30.9 °F 92% 29.84 in 4.0 mi ENE 5.8 mph - 0.00 in   Overcast
10:36 AM 33.8 °F - 32.0 °F 93% 29.81 in 3.0 mi Calm Calm - 0.00 in Rain Light Rain
10:53 AM 34.0 °F - 32.0 °F 92% 29.82 in 4.0 mi Calm Calm - 0.00 in Rain Light Rain
11:23 AM 33.8 °F - 33.8 °F 100% 29.78 in 3.0 mi Calm Calm - 0.00 in   Overcast
11:53 AM 36.0 °F - 34.0 °F 93% 29.78 in 3.0 mi Calm Calm - 0.00 in   Overcast
12:53 PM 42.1 °F - 39.0 °F 89% 29.75 in 7.0 mi Calm Calm - N/A   Mostly Cloudy
1:53 PM 51.1 °F - 45.0 °F 80% 29.74 in 10.0 mi South 11.5 mph - N/A   Partly Cloudy
2:53 PM 52.0 °F - 45.0 °F 77% 29.73 in 10.0 mi South 15.0 mph - N/A   Clear
3:53 PM 51.1 °F - 45.0 °F 80% 29.73 in 10.0 mi SSW 6.9 mph - N/A   Clear
4:53 PM 48.9 °F - 44.1 °F 83% 29.73 in 10.0 mi South 9.2 mph - N/A   Overcast
5:53 PM 48.9 °F - 44.1 °F 83% 29.74 in 10.0 mi SSW 11.5 mph - N/A   Overcast
6:14 PM 50.0 °F - 44.6 °F 82% 29.73 in 10.0 mi SW 13.8 mph - N/A   Overcast
6:43 PM 51.8 °F - 46.4 °F 82% 29.75 in 7.0 mi SW 16.1 mph 25.3 mph N/A   Overcast
6:53 PM 50.0 °F - 46.9 °F 89% 29.77 in 4.0 mi SW 19.6 mph 27.6 mph 0.01 in Rain Light Rain
7:13 PM 51.8 °F - 48.2 °F 88% 29.77 in 5.0 mi SW 13.8 mph 23.0 mph 0.00 in Rain Light Rain
7:23 PM 50.0 °F - 48.2 °F 94% 29.77 in 6.0 mi SW 15.0 mph - 0.00 in   Overcast
7:53 PM 48.9 °F - 46.9 °F 93% 29.81 in 6.0 mi WSW 11.5 mph - 0.00 in   Overcast
8:46 PM 46.4 °F 40.7 °F 39.2 °F 76% 29.84 in 10.0 mi West 12.7 mph 21.9 mph N/A   Overcast
8:53 PM 46.0 °F 39.9 °F 39.0 °F 76% 29.86 in 10.0 mi West 13.8 mph - N/A   Overcast
9:15 PM 44.6 °F 39.7 °F 37.4 °F 76% 29.85 in 10.0 mi WSW 9.2 mph - N/A   Overcast
9:53 PM 43.0 °F 36.0 °F 34.0 °F 71% 29.88 in 10.0 mi West 13.8 mph - N/A   Overcast
10:53 PM 42.1 °F 35.2 °F 32.0 °F 67% 29.93 in 10.0 mi West 12.7 mph 20.7 mph N/A   Overcast
11:53 PM 42.1 °F 35.2 °F 28.9 °F 60% 29.96 in 10.0 mi WSW 12.7 mph 19.6 mph N/A   Mostly Cloudy